User: anonymous   Login
Location: Unspecified
(0.0000°N, 0.0000°E)
Time: 21:54:19
(UTC+00:00)
Language:

STARLINK-5086 - Orbit

View from above orbital plane
View from above orbital plane
View from above satellite
View from above satellite

Ground track
Ground track

The orbit is defined by the following mean orbital elements,

1 54856U          26145.41967314 +.00000000 +00000-0 +18409-4 0 00000
2 54856  43.0030  48.4044 0001158 221.5413 138.5351 15.27579030    02
Epoch (UTC): 25 May 2026 10:04:19
Eccentricity: 0.0001158
inclination: 43.0030°
perigee height: 482 km
apogee height: 484 km
right ascension of ascending node: 48.4044°
argument of perigee: 221.5413°
revolutions per day: 15.27579030
mean anomaly at epoch: 138.5351°

The dashed part of the orbit path shows where the satellite is in the earth's shadow,  

DLR